Location: P�rn�nmaa
(61.1833°N, 23.0000°E)
Time: 18:26:46
(UTC+00:00)

Ariane Rocket - Pass Details

Date: 08 December 2019
Orbit: 760 x 770 km, 98.7° (Epoch: 17 January)

Event Time Altitude Azimuth Distance (km) Brightness Sun altitude
Exits shadow 16:23:17 38° 108° (ESE) 1,162 3.5 -20.2°
Maximum altitude 16:24:46 50° 60° (ENE) 970 3.1 -20.4°
Drops below altitude 10° 16:29:40 10° 346° (NNW) 2,311 5.5 -21.0°
Sets 16:32:02 0° 342° (NNW) 3,240 6.4 -21.2°
